This is the latest recevied weather packets stored in our database for station/object K1BES. If no packets are shown the sender has not sent any weather packets the latest 1 day(s).
| Time | Temp. | Humidity | Pressure | Rain* | Wind** | Luminosity | Snow |
|---|---|---|---|---|---|---|---|
| 1778030176 | 23.89° C | 86% | 1017.4 hPa | 0 mm | 0 m/s | 0 W/m² | - |
| 1778029872 | 23.89° C | 86% | 1017 hPa | 0 mm | 0 m/s | 0 W/m² | - |
| 1778029571 | 23.89° C | 85% | 1017.1 hPa | 0 mm | 0 m/s | 0 W/m² | - |
| 1778029268 | 23.89° C | 85% | 1017.1 hPa | 0 mm | 0.45 m/s, 29° | 0 W/m² | - |
| 1778028965 | 23.89° C | 85% | 1016.9 hPa | 0 mm | 0 m/s | 0 W/m² | - |
| 1778028661 | 23.89° C | 85% | 1017.1 hPa | 0 mm | 0.45 m/s, 31° | 0 W/m² | - |
| 1778028358 | 23.89° C | 85% | 1017 hPa | 0 mm | 0.89 m/s, 15° | 0 W/m² | - |
| 1778028055 | 23.89° C | 85% | 1016.9 hPa | 0 mm | 0.45 m/s, 29° | 0 W/m² | - |
| 1778027751 | 23.89° C | 85% | 1016.7 hPa | 0 mm | 0.45 m/s, 31° | 0 W/m² | - |
| 1778027448 | 23.89° C | 84% | 1016.8 hPa | 0 mm | 0 m/s | 0 W/m² | - |
| 1778027143 | 23.89° C | 84% | 1016.7 hPa | 0 mm | 0.45 m/s, 30° | 0 W/m² | - |
| 1778026839 | 23.89° C | 84% | 1016.6 hPa | 0 mm | 0 m/s | 0 W/m² | - |
| 1778026536 | 23.89° C | 84% | 1016.5 hPa | 0 mm | 0 m/s | 0 W/m² | - |
| 1778026233 | 24.44° C | 83% | 1016.5 hPa | 0 mm | 0 m/s | 1 W/m² | - |
| 1778025931 | 24.44° C | 83% | 1016.6 hPa | 0 mm | 0.45 m/s, 33° | 2 W/m² | - |
| 1778025628 | 24.44° C | 83% | 1016.4 hPa | 0 mm | 0 m/s | 4 W/m² | - |
| 1778025326 | 24.44° C | 82% | 1016.3 hPa | 0 mm | 0 m/s | 7 W/m² | - |
| 1778025022 | 24.44° C | 82% | 1016.1 hPa | 0 mm | 0.45 m/s, 14° | 10 W/m² | - |
| 1778024719 | 24.44° C | 82% | 1016.3 hPa | 0 mm | 0.45 m/s, 63° | 13 W/m² | - |
| 1778024416 | 25° C | 82% | 1016.4 hPa | 0 mm | 0.45 m/s, 37° | 15 W/m² | - |
| 1778024114 | 25° C | 81% | 1016.4 hPa | 0 mm | 0.89 m/s, 1° | 20 W/m² | - |
| 1778023811 | 25° C | 81% | 1016.4 hPa | 0 mm | 0.45 m/s, 32° | 25 W/m² | - |
| 1778023509 | 25° C | 81% | 1016.5 hPa | 0 mm | 0.45 m/s, 39° | 28 W/m² | - |
| 1778023206 | 25° C | 80% | 1016.6 hPa | 0 mm | 0 m/s | 32 W/m² | - |
| 1778022903 | 25.56° C | 79% | 1016.4 hPa | 0 mm | 0.89 m/s, 31° | 37 W/m² | - |
* Rain latest hour (hover to see other rain measurements)
** Current wind speed in m/s (hover to see current wind gust speed)